Previsão horária em Abertura

Hoje, 20 Janeiro, Quarta-feira

Tempo Temperatura Precipitação Vento Pressão Humidade
00:00 +8°C° 0 mm 2 m/s 731 mmHg 87%
01:00 +8°C° 0 mm 3 m/s 730 mmHg 87%
02:00 +8°C° 0 mm 3 m/s 729 mmHg 88%
03:00 +8°C° 0 mm 3 m/s 728 mmHg 88%
04:00 +8°C° 0.8 mm 3 m/s 727 mmHg 90%
05:00 +8°C° 0.8 mm 3 m/s 727 mmHg 91%
06:00 +8°C° 0 mm 2 m/s 726 mmHg 93%
07:00 +9°C° 3.5 mm 2 m/s 726 mmHg 94%
08:00 +9°C° 3.5 mm 3 m/s 725 mmHg 95%
09:00 +9°C° 3.5 mm 3 m/s 725 mmHg 96%
10:00 +10°C° 0.7 mm 4 m/s 725 mmHg 93%
11:00 +10°C° 0.7 mm 5 m/s 725 mmHg 90%
12:00 +11°C° 0.7 mm 6 m/s 725 mmHg 87%
13:00 +11°C° 0.3 mm 6 m/s 724 mmHg 84%
14:00 +13°C° 0.3 mm 6 m/s 724 mmHg 82%
15:00 +13°C° 0.3 mm 6 m/s 723 mmHg 79%
16:00 +11°C° 0.7 mm 6 m/s 724 mmHg 83%
17:00 +10°C° 0.7 mm 6 m/s 724 mmHg 87%
18:00 +9°C° 0.7 mm 5 m/s 724 mmHg 91%
19:00 +9°C° 0.3 mm 5 m/s 724 mmHg 93%
20:00 +9°C° 0.3 mm 5 m/s 725 mmHg 94%
21:00 +8°C° 0.3 mm 5 m/s 725 mmHg 95%
22:00 +9°C° 0.3 mm 5 m/s 726 mmHg 95%
23:00 +9°C° 0.3 mm 5 m/s 727 mmHg 94%

Amanhã, 21 Janeiro, Quinta-feira

Tempo Temperatura Precipitação Vento Pressão Humidade
00:00 +9°C° 0.3 mm 5 m/s 727 mmHg 94%
01:00 +9°C° 0.1 mm 5 m/s 727 mmHg 94%
02:00 +10°C° 0.1 mm 4 m/s 728 mmHg 95%
03:00 +10°C° 0.1 mm 4 m/s 728 mmHg 95%
04:00 +10°C° 0.1 mm 4 m/s 728 mmHg 95%
05:00 +10°C° 0.1 mm 4 m/s 729 mmHg 96%
06:00 +10°C° 0.1 mm 4 m/s 729 mmHg 96%
07:00 +10°C° 0.1 mm 4 m/s 729 mmHg 95%
08:00 +10°C° 0.1 mm 4 m/s 729 mmHg 95%
09:00 +9°C° 0.1 mm 5 m/s 729 mmHg 94%
10:00 +10°C° 0.1 mm 5 m/s 730 mmHg 91%
11:00 +10°C° 0.1 mm 5 m/s 730 mmHg 88%
12:00 +11°C° 0.1 mm 6 m/s 730 mmHg 85%
13:00 +11°C° 0.2 mm 6 m/s 729 mmHg 86%
14:00 +11°C° 0.2 mm 6 m/s 729 mmHg 88%
15:00 +11°C° 0.2 mm 6 m/s 728 mmHg 89%
16:00 +11°C° 0.2 mm 6 m/s 728 mmHg 89%
17:00 +11°C° 0.2 mm 6 m/s 728 mmHg 90%
18:00 +11°C° 0.2 mm 6 m/s 728 mmHg 90%
19:00 +12°C° 1.2 mm 5 m/s 728 mmHg 92%
20:00 +12°C° 1.2 mm 5 m/s 728 mmHg 94%
21:00 +12°C° 1.2 mm 5 m/s 728 mmHg 95%
22:00 +12°C° 0.5 mm 5 m/s 728 mmHg 95%
23:00 +12°C° 0.5 mm 5 m/s 727 mmHg 95%

Depois de amanhã, 22 Janeiro, Sexta-feira

Tempo Temperatura Precipitação Vento Pressão Humidade
00:00 +12°C° 0.5 mm 5 m/s 727 mmHg 95%
01:00 +12°C° 0.1 mm 5 m/s 727 mmHg 94%
02:00 +11°C° 0.1 mm 6 m/s 727 mmHg 94%
03:00 +11°C° 0.1 mm 6 m/s 726 mmHg 93%
04:00 +11°C° 0.2 mm 7 m/s 726 mmHg 92%
05:00 +11°C° 0.2 mm 7 m/s 726 mmHg 91%
06:00 +11°C° 0.2 mm 8 m/s 726 mmHg 90%
07:00 +10°C° 0.1 mm 7 m/s 727 mmHg 89%
08:00 +9°C° 0.1 mm 6 m/s 727 mmHg 88%
09:00 +8°C° 0.1 mm 6 m/s 727 mmHg 87%
10:00 +8°C° 0.1 mm 6 m/s 728 mmHg 84%
11:00 +9°C° 0.1 mm 7 m/s 728 mmHg 81%
12:00 +9°C° 0.1 mm 7 m/s 728 mmHg 79%
13:00 +9°C° 0.5 mm 7 m/s 728 mmHg 81%
14:00 +8°C° 0.5 mm 7 m/s 728 mmHg 83%
15:00 +8°C° 0.5 mm 7 m/s 728 mmHg 85%
16:00 +7°C° 0 mm 6 m/s 728 mmHg 86%
17:00 +7°C° 0 mm 5 m/s 729 mmHg 86%
18:00 +6°C° 0 mm 4 m/s 729 mmHg 87%
19:00 +6°C° 0 mm 4 m/s 730 mmHg 89%
20:00 +5°C° 0 mm 4 m/s 730 mmHg 90%
21:00 +5°C° 0 mm 4 m/s 730 mmHg 92%
22:00 +4°C° 0 mm 4 m/s 731 mmHg 93%
23:00 +4°C° 0 mm 4 m/s 731 mmHg 94%

23 Janeiro, Sábado

Tempo Temperatura Precipitação Vento Pressão Humidade
00:00 +4°C° 0 mm 4 m/s 731 mmHg 95%
01:00 +4°C° 0 mm 4 m/s 731 mmHg 95%
02:00 +4°C° 0 mm 4 m/s 731 mmHg 94%
03:00 +5°C° 0 mm 4 m/s 731 mmHg 94%
04:00 +5°C° 0 mm 4 m/s 731 mmHg 93%
05:00 +5°C° 0 mm 4 m/s 731 mmHg 93%
06:00 +5°C° 0 mm 4 m/s 731 mmHg 93%
07:00 +5°C° 0 mm 4 m/s 731 mmHg 92%
08:00 +6°C° 0 mm 4 m/s 731 mmHg 91%
09:00 +6°C° 0 mm 5 m/s 731 mmHg 90%
10:00 +7°C° 0 mm 5 m/s 731 mmHg 87%
11:00 +8°C° 0 mm 5 m/s 731 mmHg 84%
12:00 +9°C° 0 mm 6 m/s 731 mmHg 81%
13:00 +9°C° 0 mm 6 m/s 730 mmHg 82%
14:00 +9°C° 0 mm 6 m/s 729 mmHg 84%
15:00 +9°C° 0 mm 5 m/s 729 mmHg 85%
16:00 +9°C° 0 mm 6 m/s 728 mmHg 86%
17:00 +9°C° 0 mm 6 m/s 728 mmHg 86%
18:00 +9°C° 0 mm 6 m/s 727 mmHg 86%
19:00 +9°C° 0.4 mm 7 m/s 727 mmHg 88%
20:00 +9°C° 0.4 mm 7 m/s 727 mmHg 90%
21:00 +9°C° 0.4 mm 8 m/s 727 mmHg 93%
22:00 +10°C° 1.3 mm 8 m/s 726 mmHg 93%
23:00 +10°C° 1.3 mm 8 m/s 726 mmHg 93%

24 Janeiro, Domingo

Tempo Temperatura Precipitação Vento Pressão Humidade
00:00 +11°C° 1.3 mm 9 m/s 726 mmHg 94%
01:00 +10°C° 1.1 mm 8 m/s 726 mmHg 93%
02:00 +10°C° 1.1 mm 7 m/s 726 mmHg 92%
03:00 +10°C° 1.1 mm 7 m/s 726 mmHg 91%
04:00 +9°C° 0 mm 6 m/s 726 mmHg 92%
05:00 +8°C° 0 mm 5 m/s 727 mmHg 93%
06:00 +7°C° 0 mm 5 m/s 727 mmHg 94%
07:00 +7°C° 0 mm 4 m/s 728 mmHg 94%
08:00 +7°C° 0 mm 4 m/s 729 mmHg 93%
09:00 +7°C° 0 mm 4 m/s 730 mmHg 92%
10:00 +8°C° 0 mm 4 m/s 730 mmHg 86%
11:00 +10°C° 0 mm 4 m/s 731 mmHg 79%
12:00 +12°C° 0 mm 4 m/s 731 mmHg 72%
13:00 +12°C° 0 mm 4 m/s 731 mmHg 71%
14:00 +12°C° 0 mm 4 m/s 730 mmHg 69%
15:00 +12°C° 0 mm 4 m/s 730 mmHg 67%
16:00 +11°C° 0 mm 4 m/s 730 mmHg 73%
17:00 +9°C° 0 mm 3 m/s 730 mmHg 79%
18:00 +8°C° 0 mm 2 m/s 730 mmHg 85%
19:00 +8°C° 0 mm 2 m/s 731 mmHg 86%
20:00 +7°C° 0 mm 2 m/s 731 mmHg 87%
21:00 +8°C° 0 mm 1 m/s 732 mmHg 89%
22:00 +8°C° 0 mm 1 m/s 732 mmHg 89%
23:00 +8°C° 0 mm 1 m/s 732 mmHg 89%

25 Janeiro, Segunda-feira

Tempo Temperatura Precipitação Vento Pressão Humidade
00:00 +8°C° 0 mm 1 m/s 732 mmHg 89%
01:00 +8°C° 0 mm 1 m/s 732 mmHg 90%
02:00 +7°C° 0 mm 1 m/s 733 mmHg 91%
03:00 +7°C° 0 mm 1 m/s 733 mmHg 93%
04:00 +6°C° 0 mm 1 m/s 733 mmHg 93%
05:00 +6°C° 0 mm 1 m/s 733 mmHg 93%
06:00 +5°C° 0 mm 1 m/s 732 mmHg 93%
07:00 +5°C° 0 mm 0 m/s 733 mmHg 90%
08:00 +6°C° 0 mm 0 m/s 734 mmHg 88%
09:00 +6°C° 0 mm 0 m/s 734 mmHg 85%
10:00 +8°C° 0 mm 0 m/s 734 mmHg 79%
11:00 +11°C° 0 mm 1 m/s 734 mmHg 73%
12:00 +12°C° 0 mm 1 m/s 735 mmHg 67%
13:00 +13°C° 0 mm 1 m/s 734 mmHg 67%
14:00 +13°C° 0 mm 2 m/s 734 mmHg 67%
15:00 +13°C° 0 mm 2 m/s 734 mmHg 66%
16:00 +12°C° 0 mm 2 m/s 734 mmHg 73%
17:00 +11°C° 0 mm 1 m/s 734 mmHg 79%
18:00 +9°C° 0 mm 1 m/s 734 mmHg 85%
19:00 +9°C° 0 mm 1 m/s 735 mmHg 86%
20:00 +7°C° 0 mm 0 m/s 736 mmHg 87%
21:00 +7°C° 0 mm 0 m/s 736 mmHg 88%
22:00 +6°C° 0 mm 0 m/s 736 mmHg 89%
23:00 +6°C° 0 mm 0 m/s 737 mmHg 89%
Mostrar mais